User: anonymous   Login
Location: Innsbruck
(47.2657°N, 11.3914°E)
Time: 03:58:47
(UTC+01:00)
Language:

SEEDS - Orbit

View from above orbital plane
View from above orbital plane
View from above satellite
View from above satellite

Ground track
Ground track

The orbit data is extracted from the following two-line orbital elements,

1 32791U 08021J   21339.43390697  .00001009  00000-0  10549-3 0  9994
2 32791  97.5901 317.5793 0014445 113.7978 246.4757 14.91684862738264
Epoch (UTC): 05 December 2021 10:24:49
Eccentricity: 0.0014445
inclination: 97.5901°
perigee height: 582 km
apogee height: 603 km
right ascension of ascending node: 317.5793°
argument of perigee: 113.7978°
revolutions per day: 14.91684862
mean anomaly at epoch: 246.4757°
orbit number at epoch: 73826

The dashed part of the orbit path shows where the satellite is in the earth's shadow,  

DLR